Weather History for KGWO - December, 2012

Change the Weather History Date:

Tuesday, December 4, 2012

  Actual Average Record
Temperature  
Mean Temperature 68 °F 48 °F  
Max Temperature 78 °F 59 °F 79 °F (2013)
Min Temperature 58 °F 37 °F 20 °F (1989)
Degree Days  
Heating Degree Days 0 17  
Month to date heating degree days 7 66  
Since 1 July heating degree days 604 534  
Cooling Degree Days 3 0  
Month to date cooling degree days 8 0  
Year to date cooling degree days 2249 2159  
Growing Degree Days 16 (Base 50)    
Moisture  
Dew Point 60 °F    
Average Humidity 82    
Maximum Humidity 100    
Minimum Humidity 64    
Precipitation  
Precipitation 1.19 in 0.20 in 2.10 in (1982)
Month to date precipitation 1.19 0.81  
Year to date precipitation 38.38 46.93  
Sea Level Pressure  
Sea Level Pressure 30.15 in    
Wind  
Wind Speed 10 mph (South)    
Max Wind Speed 32 mph    
Max Gust Speed 46 mph    
Visibility 8 miles    
Events Rain    
T = Trace of Precipitation, MM = Missing Value Source: NWS Daily Summary

Daily Weather History Graph

Daily Weather History Graph

Search for Another Location

Airport or City:

Trip Planner

Search our weather history database for the weather conditions in past years. The results will help you decide how hot, cold, wet, or windy it might be!

Date:

Astronomy

Dec. 04, 2012 Rise Set
Actual Time 6:49 AM CST 4:52 PM CST
Civil Twilight 6:22 AM CST 5:19 PM CST
Nautical Twilight 5:51 AM CST 5:50 PM CST
Astronomical Twilight 5:21 AM CST 6:20 PM CST
Moon 10:28 PM CST (12/4) 10:53 AM CST (12/4)
Length of Visible Light 10h 57m
Length of Day
10h 02m
Waning Gibbous, 69% of the Moon is Illuminated
Dec 4
Waning Gibbous
Dec 6
Last Quarter
Dec 13
New
Dec 19
First Quarter
Dec 28
Full

Hourly Weather History & Observations

Time (CST) Temp. Dew Point Humidity Pressure Visibility Wind Dir Wind Speed Gust Speed Precip Events Conditions
12:53 AM 66.0 °F 60.1 °F 81% 30.12 in 10.0 mi South 13.8 mph - N/A   Mostly Cloudy
1:53 AM 66.0 °F 61.0 °F 84% 30.13 in 10.0 mi South 10.4 mph - N/A   Mostly Cloudy
2:53 AM 66.0 °F 62.1 °F 87% 30.14 in 10.0 mi South 10.4 mph - N/A   Overcast
3:53 AM 64.9 °F 62.1 °F 90% 30.13 in 10.0 mi South 12.7 mph - N/A   Mostly Cloudy
4:31 AM 64.4 °F 62.6 °F 94% 30.13 in 10.0 mi South 11.5 mph - N/A   Mostly Cloudy
4:50 AM 64.4 °F 62.6 °F 94% 30.13 in 10.0 mi South 11.5 mph - N/A   Mostly Cloudy
4:53 AM 64.4 °F 62.6 °F 94% 30.14 in 10.0 mi South 11.5 mph - N/A   Mostly Cloudy
5:11 AM 64.4 °F 62.6 °F 94% 30.14 in 10.0 mi SSW 8.1 mph - N/A   Mostly Cloudy
5:23 AM 64.4 °F 62.6 °F 94% 30.14 in 10.0 mi South 11.5 mph - N/A   Overcast
5:53 AM 64.9 °F 62.1 °F 90% 30.14 in 10.0 mi South 9.2 mph - N/A   Overcast
6:53 AM 64.9 °F 62.1 °F 90% 30.16 in 10.0 mi SSW 8.1 mph - N/A   Overcast
7:53 AM 66.9 °F 63.0 °F 87% 30.17 in 10.0 mi South 10.4 mph - N/A   Overcast
8:53 AM 69.1 °F 64.0 °F 84% 30.18 in 10.0 mi South 15.0 mph - N/A   Mostly Cloudy
9:53 AM 71.1 °F 64.0 °F 78% 30.19 in 10.0 mi South 10.4 mph - N/A   Mostly Cloudy
10:53 AM 72.0 °F 64.0 °F 76% 30.17 in 10.0 mi SSW 10.4 mph - N/A   Mostly Cloudy
11:53 AM 75.9 °F 64.0 °F 67% 30.14 in 10.0 mi SSW 15.0 mph 23.0 mph N/A   Mostly Cloudy
12:00 PM 75.2 °F 64.4 °F 69% 30.15 in 10.0 mi SSW 18.4 mph 24.2 mph N/A   Mostly Cloudy
12:53 PM 75.9 °F 63.0 °F 64% 30.13 in 10.0 mi SW 16.1 mph - N/A   Mostly Cloudy
1:53 PM 73.0 °F 64.0 °F 73% 30.09 in 10.0 mi SSW 11.5 mph - 0.00 in Rain Light Rain
2:26 PM 69.8 °F 66.2 °F 88% 30.10 in 2.5 mi SW 4.6 mph - 0.02 in Rain Rain
2:42 PM 66.2 °F 64.4 °F 94% 30.10 in 3.0 mi SW 15.0 mph 23.0 mph 0.06 in Rain Rain
2:50 PM 66.2 °F 62.6 °F 88% 30.10 in 3.0 mi South 10.4 mph - 0.08 in Rain Light Rain
2:53 PM 66.9 °F 63.0 °F 87% 30.09 in 4.0 mi SSW 6.9 mph - 0.08 in Rain Light Rain
3:41 PM 60.8 °F 57.2 °F 88% 30.13 in 6.0 mi North 28.8 mph 46.0 mph 0.01 in Rain Light Rain
3:53 PM 60.1 °F 57.0 °F 90% 30.14 in 5.0 mi NNE 19.6 mph 28.8 mph 0.02 in Rain Light Rain
4:03 PM 60.8 °F 57.2 °F 88% 30.15 in 10.0 mi NNE 17.3 mph - 0.00 in Rain Light Rain
4:26 PM 59.0 °F 57.2 °F 94% 30.17 in 2.5 mi NNE 10.4 mph - 0.15 in Rain Heavy Rain
4:38 PM 59.0 °F 57.2 °F 94% 30.19 in 1.5 mi East 10.4 mph - 0.39 in Rain Heavy Rain
4:48 PM 59.0 °F 57.2 °F 94% 30.19 in 2.0 mi ENE 8.1 mph 17.3 mph 0.49 in Rain Heavy Rain
4:49 PM 59.0 °F 57.0 °F 93% 30.19 in 2.0 mi ENE 8.1 mph 17.3 mph 0.49 in Rain Heavy Rain
4:59 PM 59.0 °F 57.2 °F 94% 30.20 in 3.0 mi NE 8.1 mph - 0.06 in Rain Heavy Rain
5:53 PM 59.0 °F 57.0 °F 93% 30.20 in 4.0 mi ENE 8.1 mph - 0.23 in Rain Rain
6:53 PM 57.9 °F 57.0 °F 97% 30.19 in 5.0 mi East 6.9 mph - 0.21 in Rain Rain
7:53 PM 57.9 °F 57.0 °F 97% 30.17 in 10.0 mi ESE 12.7 mph - 0.12 in Rain Light Rain
8:53 PM 59.0 °F 57.0 °F 93% 30.16 in 10.0 mi SSE 6.9 mph - 0.03 in Rain Light Rain
9:24 PM 57.2 °F 57.2 °F 100% 30.18 in 10.0 mi NNW 10.4 mph - 0.01 in Rain Light Rain
9:53 PM 57.9 °F 57.0 °F 97% 30.19 in 10.0 mi Calm Calm - 0.01 in   Mostly Cloudy
10:07 PM 57.2 °F 57.2 °F 100% 30.21 in 10.0 mi Calm Calm - N/A   Mostly Cloudy
10:53 PM 57.9 °F 57.0 °F 97% 30.21 in 10.0 mi North 3.5 mph - N/A   Overcast
11:53 PM 57.9 °F 57.0 °F 97% 30.19 in 10.0 mi East 3.5 mph - N/A   Overcast